{"data":{"norad_id":63403,"intl_designator":"2025-065E","name":"STARLINK-33676","alt_names":[],"object_type":"PAYLOAD","status":"ACTIVE","operator":null,"country":"US","launch_date":"2025-03-31","launch_site_code":"AFETR","launch_vehicle":null,"mission":null,"orbit_class":"UNKNOWN","rcs_meters":null,"size_class":null,"mass_kg":null,"dimensions":null,"purposes":["comms"],"wikipedia_slug":null,"has_3d_model":false,"image_url":null,"decayed_at":null,"tle_current":{"epoch":"2026-05-25T01:46:33.039264Z","epoch_age_seconds":82802,"freshness":"FRESH","line1":"1 63403U 25065E   26145.07399351  .00025655  00000+0  93821-3 0  9997","line2":"2 63403  43.0028  35.5540 0001380 263.8286  96.2408 15.27592530 64529","mean_motion":15.2759253,"eccentricity":0.000138,"inclination_deg":43.0028,"raan_deg":35.554,"arg_perigee_deg":263.8286,"mean_anomaly_deg":96.2408,"bstar":0.00093821,"rev_number":6452,"period_min":94.265975495442,"perigee_km":482.06473846485,"apogee_km":483.95841547209,"semimajor_km":6861.1485769685,"source":"CELESTRAK","updated_at":"2026-05-25T13:38:19.968733Z"}}}